Flag for USA

Past Weather in New Port Richey, Florida, USA — Yesterday and Last 2 Weeks

Now
73 °F

Light rain. Cloudy.


Feels Like: 72 °F
Forecast: 87 / 74 °F
Wind: 7 mph from Southeast

Location: Clearwater Air Park
Current Time: Oct 19, 2020 at 5:03:58 pm
Latest Report: Oct 19, 2020 at 4:15 pm
Visibility: 10 mi
Pressure30.02 "Hg
Humidity: 89%
Dew Point: 70 °F
Location of New Port RicheyLocation

Past Weather in New Port Richey — Graph

°F

New Port Richey Temperature Yesterday

Maximum temperature yesterday: 88 °F (at 2:35 pm)
Minimum temperature yesterday: 70 °F (at 4:35 am)
Average temperature yesterday: 76 °F

High & Low Weather Summary for the Past Weeks

 TemperatureHumidityPressure
High91 °F (Oct 6, 3:35 pm)100% (Oct 12, 4:35 am)30.15 "Hg (Oct 12, 4:35 am)
Low70 °F (Oct 4, 9:15 pm)43% (Oct 8, 2:55 pm)29.88 "Hg (Oct 11, 4:35 am)
Average79 °F77%29.99 "Hg
* Reported Oct 4 3:15 pm — Oct 19 3:35 pm, New Port Richey. Weather by CustomWeather, © 2020

Note: Actual official high and low records may vary slightly from our data, if they occured in-between our weather recording intervals... More about our weather records

New Port Richey Weather History for the Previous 24 Hours

Scroll right to see more
 ConditionsComfort  
Time TempWeatherWind HumidityBarometerVisibility
3:35 pm
Mon, Oct 19
77 °FWarm.12 mph79%30.01 "Hg10 mi
3:15 pm79 °FWarm.15 mph74%30.00 "Hg10 mi
2:35 pm84 °FWarm.9 mph62%29.99 "Hg10 mi
1:55 pm86 °FWarm.8 mph55%30.01 "Hg10 mi
1:35 pm86 °FWarm.14 mph55%30.02 "Hg10 mi
1:15 pm84 °FWarm.12 mph58%30.03 "Hg10 mi
12:55 pm82 °FWarm.13 mph62%30.04 "Hg10 mi
12:35 pm82 °FWarm.10 mph62%30.04 "Hg10 mi
12:15 pm82 °FWarm.14 mph62%30.05 "Hg10 mi
11:55 am82 °FWarm.8 mph62%30.05 "Hg10 mi
11:35 am81 °FWarm.10 mph66%30.06 "Hg10 mi
11:15 am81 °FWarm.12 mph66%30.05 "Hg10 mi
10:55 am81 °FWarm.14 mph62%30.05 "Hg10 mi
10:35 am81 °FWarm.8 mph66%30.05 "Hg10 mi
10:15 am79 °FWarm.8 mph65%30.05 "Hg10 mi
9:55 am79 °FWarm.12 mph65%30.06 "Hg10 mi
9:15 am77 °FWarm.15 mph65%30.06 "Hg10 mi
8:55 am75 °FMild.9 mph69%30.06 "Hg10 mi
8:15 am73 °FMild.9 mph74%30.04 "Hg10 mi
7:55 am73 °FMild.8 mph74%30.04 "Hg10 mi
7:35 am73 °FMild.12 mph74%30.04 "Hg10 mi
6:55 am73 °FMild.9 mph74%30.03 "Hg10 mi
4:15 am73 °FMild.9 mph83%30.01 "Hg10 mi
3:55 am75 °FMild.8 mph78%30.01 "Hg10 mi
3:35 am75 °FMild.7 mph78%30.02 "Hg10 mi
3:15 am75 °FMild.8 mph78%30.03 "Hg10 mi
2:55 am75 °FMild.13 mph83%30.04 "Hg10 mi
2:35 am75 °FMild.8 mph83%30.04 "Hg10 mi
2:15 am75 °FMild.8 mph83%30.05 "Hg10 mi
1:55 am75 °FMild.7 mph83%30.06 "Hg10 mi
1:35 am75 °FMild.8 mph83%30.06 "Hg10 mi
12:55 am75 °FMild.9 mph78%30.06 "Hg10 mi
12:35 am75 °FMild.9 mph78%30.06 "Hg10 mi
12:15 am73 °FMild.10 mph83%30.06 "Hg10 mi
11:55 pm
Sun, Oct 18
73 °FMild.12 mph83%30.07 "Hg10 mi
11:35 pm73 °FMild.9 mph83%30.06 "Hg10 mi
11:15 pm73 °FMild.7 mph83%30.06 "Hg10 mi
10:55 pm73 °FMild.9 mph83%30.06 "Hg10 mi
10:35 pm73 °FMild.8 mph83%30.05 "Hg10 mi
10:15 pm73 °FMild.10 mph78%30.06 "Hg10 mi
9:55 pm73 °FMild.7 mph78%30.05 "Hg10 mi
9:35 pm75 °FMild.12 mph74%30.05 "Hg10 mi
9:15 pm75 °FMild.8 mph74%30.05 "Hg10 mi
8:55 pm77 °FWarm.9 mph69%30.05 "Hg10 mi
8:35 pm77 °FWarm.10 mph65%30.04 "Hg10 mi
7:55 pm77 °FWarm.14 mph69%30.03 "Hg10 mi
7:35 pm77 °FWarm.10 mph69%30.03 "Hg10 mi
7:15 pm79 °FWarm.12 mph65%30.03 "Hg10 mi
6:55 pm79 °FWarm.9 mph61%30.02 "Hg10 mi
6:35 pm79 °FWarm.13 mph61%30.03 "Hg10 mi
6:15 pm79 °FWarm.10 mph61%30.02 "Hg10 mi
5:55 pm81 °FWarm.10 mph58%30.02 "Hg10 mi
5:35 pm81 °FWarm.14 mph58%30.03 "Hg10 mi
5:15 pm82 °FWarm.21 mph62%30.03 "Hg10 mi
Weather by CustomWeather, © 2020

See weather overview